ScraperWiki Classic is now read-only.

But don’t worry! You can transfer this scraper to Morph.io if you want to continue editing it.

Transfer to Morph.io

Current status

Idle – not scheduled to run

Last run

9 months, 3 weeks ago

Scraped 2 pages from v3.mmsd.com

About this scraper

Data Provided by the Milwaukee Metropolitan Sewerage District

Created at Random Hacks of Kindness: Milwaukee

This scraper is public

Anyone can see this scraper, and any registered user can edit it.

Users who have contributed to this scraper:

rain_fall_unit water_temp_unit stage_unit do_unit updated_at conductivity_unit flow_unit turbidity_unit
Inches °C FeetUSGS mg/L 2011-11-19T17:35:00 µmhos/cm cfs FNU
Inches °C FeetUSGS mg/L 2011-12-09T11:06:00 µmhos/cm cfs FNU
Inches °C FeetUSGS mg/L 2011-12-13T11:50:00 µmhos/cm cfs FNU
Inches °C FeetUSGS mg/L 2011-12-17T11:52:00 µmhos/cm cfs FNU
Inches °C FeetUSGS mg/L 2013-06-06T15:25:00 µmhos/cm cfs FNU
max_rain_fall mmsd_id min_cond max_cond max_terb description min_flow max_stage usgs_id longitude max_flow content marker min_rain_fall min_terb min_water_temp latitude min_stage max_do min_do max_water_temp
2 MS1103 259 1080 34 Milwaukee River at Cherry St. in Milwaukee, WI -87.911253 content/wq/ms1103/ms1103.html 0Xff0000 0 0 -1 43.048347 19 4 19
2 MS1104 91 966 69 Kinnickinnic River at 1st Sreet in Milwaukee, WI -87.911111 content/wq/ms1104/ms1104.html 0Xff0000 0 1 1 43.008071 12 -1 20
2 MS1105 -213 1593 289 Menomonee River at 70th & State in Wauwatosa, WI -6 4 04087120 -87.999979 524 content/wq/ms1105/ms1105.html 0Xfff200 0 -2 -1 43.045611 1 19 -3 18
2 MS1130 -183 1328 584 Menomonee River at Pilgrim Rd. in Menomonee Falls, WI -4 5 04087030 -88.104135 102 content/wq/ms1130/ms1130.html 0Xfff200 0 -1 -1 43.172924 0 20 -3 18
2 MS1131 -328 2314 431 Honey Creek Parkway in Wauwatosa, WI -1 10 04087119 -88.00329 202 content/wq/ms1131/ms1131.html 0Xfff200 0 -2 -1 43.043871 4 18 -3 19
3 MS1135 144 1179 614 Little Menomonee River at Donges Bay Rd. Near Freistadt, WI -1 3 04087050 -88.03823 30 content/wq/ms1135/ms1135.html 0Xfff200 0 0 -1 43.206799 1 17 1 16
2 MS1132 6 2515 1007 Underwood Creek Parkway at US Hwy 45 in Wauwatosa, WI 0 8 04087088 -88.046111 131 content/wq/ms1132/ms1132.html 0Xfff200 0 0 -1 43.054722 3 27 1 18
2 MS1101 -70 1102 580 Milwaukee River at Pioneer Road in Cedarburg, WI -87.942651 content/wq/MS1101/MS1101.html 0Xff0000 0 -2 -7 43.279836 17 -2 27
3 CT07RL -32 3521 360 Menomonee River at 16th & Canal in Milwaukee, WI -1356 16 04087142 -87.933039 2627 content/wq/ct07rl/ct07rl.html 0Xfff200 0 -4 -4 43.032533 6 17 -1 34
3 MS1102 239 1691 181 Milwaukee River at St. Paul in Milwaukee, WI -87.909505 content/wq/ms1102/ms1102.html 0Xff0000 0 0 -4 43.034875 17 2 27
mmsd_id created_at conductivity source rain_fall turbidity dissolved_oxygen water_temperature flow stage
MS1101 2011-08-21T00:00:00 794.8 MMSD 0 2.1 8.8 23.1 None None
MS1101 2011-08-22T00:00:00 805 MMSD 0 1.4 9 22.2 None None
MS1101 2011-08-23T00:00:00 821.1 MMSD .1 1.2 8.1 21.6 None None
MS1101 2011-08-24T00:00:00 831.1 MMSD 0 .8 8.4 23.1 None None
MS1101 2011-08-25T00:00:00 831.3 MMSD 0 .6 8.4 22.7 None None
MS1101 2011-08-26T00:00:00 833.2 MMSD 0 .5 8.5 22.3 None None
MS1101 2011-08-27T00:00:00 848 MMSD 0 .6 8.1 23.3 None None
MS1101 2011-08-28T00:00:00 854.7 MMSD 0 .6 8.4 21.8 None None
MS1101 2011-08-29T00:00:00 890.2 MMSD 0 .9 8.8 21.5 None None
MS1101 2011-08-30T00:00:00 927.8 MMSD .2 1.1 8.3 20.6 None None
MS1101 2011-08-31T00:00:00 917.5 MMSD 0 1.1 8.9 22.3 None None
MS1101 2011-09-01T00:00:00 908.7 MMSD 0 1.3 8.4 23.5 None None
MS1101 2011-09-02T00:00:00 920.2 MMSD 0 1.3 7.7 24.4 None None
MS1101 2011-09-03T00:00:00 875.9 MMSD .7 2.2 7.1 23.6 None None
MS1101 2011-09-04T00:00:00 866.1 MMSD 0 2.1 8.3 21.3 None None
MS1101 2011-09-05T00:00:00 891.1 MMSD 0 2.5 9.3 18.7 None None
MS1101 2011-10-20T00:15:00 845.2 MMSD None 1.6 9.8 8.8 None None
MS1101 2011-10-20T00:30:00 846.2 MMSD None 1.7 9.8 8.7 None None
MS1101 2011-10-20T00:45:00 845.2 MMSD None 1.8 9.8 8.7 None None
MS1101 2011-10-20T01:00:00 846.3 MMSD 0 8.4 9.8 8.7 None None
MS1101 2011-10-20T01:15:00 847.3 MMSD None 5.5 9.8 8.7 None None
MS1101 2011-10-20T01:30:00 849.1 MMSD None 2.5 9.8 8.6 None None
MS1101 2011-10-20T01:45:00 849.9 MMSD None 2.4 9.8 8.6 None None
MS1101 2011-10-20T02:00:00 851 MMSD 0 2.1 9.8 8.6 None None
MS1101 2011-10-20T02:15:00 851 MMSD None 4 9.8 8.6 None None
MS1101 2011-10-20T02:30:00 851.7 MMSD None 2.4 9.8 8.6 None None
MS1101 2011-10-20T02:45:00 852.2 MMSD None 2.1 9.8 8.6 None None
MS1101 2011-10-20T03:00:00 852.2 MMSD 0 6.9 9.8 8.5 None None
MS1101 2011-10-20T03:15:00 853.2 MMSD None 10.2 9.8 8.5 None None
MS1101 2011-10-20T03:30:00 853.6 MMSD None 4.9 9.8 8.5 None None
MS1101 2011-10-20T03:45:00 854 MMSD None 4 9.8 8.5 None None
MS1101 2011-10-20T04:00:00 854.4 MMSD 0 6.6 9.8 8.5 None None
MS1101 2011-10-20T04:15:00 854.3 MMSD None 4.9 9.8 8.4 None None
MS1101 2011-10-20T04:30:00 854 MMSD None 6.9 9.8 8.4 None None
MS1101 2011-10-20T04:45:00 853.2 MMSD None 8.5 9.9 8.4 None None
MS1101 2011-10-20T05:00:00 851.8 MMSD 0 4.6 9.9 8.4 None None
MS1101 2011-10-20T05:15:00 850.7 MMSD None 4.6 9.9 8.3 None None
MS1101 2011-10-20T05:30:00 850 MMSD None 2.4 9.9 8.3 None None
MS1101 2011-10-20T05:45:00 850 MMSD None 2.1 9.9 8.3 None None
MS1101 2011-10-20T06:00:00 849.6 MMSD 0 2.5 9.9 8.3 None None
MS1101 2011-10-20T06:15:00 848.9 MMSD None 3.5 9.9 8.2 None None
MS1101 2011-10-20T06:30:00 848.9 MMSD None 1.6 9.9 8.2 None None
MS1101 2011-10-20T06:45:00 847.4 MMSD None 1.7 9.9 8.2 None None
MS1101 2011-10-20T07:00:00 846 MMSD 0 2.2 9.9 8.2 None None
MS1101 2011-10-20T07:15:00 845.3 MMSD None 2.7 9.9 8.2 None None
MS1101 2011-10-20T07:30:00 845.3 MMSD None 5.2 10 8.1 None None
MS1101 2011-10-20T07:45:00 844.5 MMSD None 1.6 10 8.1 None None
MS1101 2011-10-20T08:00:00 843.7 MMSD 0 1.7 10.1 8.1 None None
MS1101 2011-10-20T08:15:00 843.4 MMSD None 1.9 10.2 8.1 None None
MS1101 2011-10-20T08:30:00 842.8 MMSD None 2.1 10.3 8.1 None None
MS1101 2011-10-20T08:45:00 842.4 MMSD None 1.6 10.5 8.1 None None
MS1101 2011-10-20T09:00:00 842.3 MMSD 0 1.3 10.7 8.1 None None
MS1101 2011-10-20T09:15:00 841.3 MMSD None 2.1 11.1 8.1 None None
MS1101 2011-10-20T09:30:00 839.8 MMSD None 1.5 11.4 8.1 None None
MS1101 2011-10-20T09:45:00 838.7 MMSD None 1.5 11.8 8.2 None None
MS1101 2011-10-20T10:00:00 838 MMSD 0 1.4 12.3 8.2 None None
MS1101 2011-10-20T10:15:00 836.9 MMSD None 1.6 12.8 8.3 None None
MS1101 2011-10-20T10:30:00 836.8 MMSD None 9.2 13.2 8.3 None None
MS1101 2011-10-20T10:45:00 835.8 MMSD None 6.1 13.5 8.3 None None
MS1101 2011-10-20T11:00:00 834.6 MMSD 0 5.7 13.7 8.4 None None
MS1101 2011-10-20T11:15:00 833.5 MMSD None 2.9 13.9 8.4 None None
MS1101 2011-10-20T11:30:00 832.4 MMSD None 32.6 14 8.4 None None
MS1101 2011-10-20T11:45:00 832.5 MMSD None 31.7 14.1 8.4 None None
MS1101 2011-10-20T12:00:00 832.5 MMSD 0 2.7 14.3 8.4 None None
MS1101 2011-10-20T12:15:00 832.5 MMSD None 23.2 14.4 8.4 None None
MS1101 2011-10-20T12:30:00 833.5 MMSD None 13.9 14.5 8.5 None None
MS1101 2011-10-20T12:45:00 834.6 MMSD None 13.7 14.7 8.5 None None
MS1101 2011-10-20T13:00:00 836.2 MMSD 0 29.7 14.9 8.5 None None
MS1101 2011-10-20T13:15:00 836.7 MMSD None 5.4 15 8.5 None None
MS1101 2011-10-20T13:30:00 837.6 MMSD None 6.8 15.1 8.6 None None
MS1101 2011-10-20T13:45:00 838.4 MMSD None 1.6 15.3 8.6 None None
MS1101 2011-10-20T14:00:00 839.5 MMSD 0 2 15.3 8.7 None None
MS1101 2011-10-20T14:15:00 840.2 MMSD None 1.6 15.2 8.7 None None
MS1101 2011-10-20T14:30:00 840.9 MMSD None 1.6 15.2 8.7 None None
MS1101 2011-10-20T14:45:00 841.3 MMSD None 1.9 15.2 8.7 None None
MS1101 2011-10-20T15:00:00 841.3 MMSD 0 1.5 15.1 8.7 None None
MS1101 2011-10-20T15:15:00 841.3 MMSD None 3.5 15 8.7 None None
MS1101 2011-10-20T15:30:00 840.3 MMSD None 1.6 14.9 8.7 None None
MS1101 2011-10-20T15:45:00 839.9 MMSD None 1.5 14.8 8.7 None None
MS1101 2011-10-20T16:00:00 839.2 MMSD 0 3.8 14.6 8.7 None None
MS1101 2011-10-20T16:15:00 839.1 MMSD None 2.4 14.4 8.7 None None
MS1101 2011-10-20T16:30:00 839.2 MMSD None 1.5 14.1 8.7 None None
MS1101 2011-10-20T16:45:00 839.8 MMSD None 2.1 13.7 8.6 None None
MS1101 2011-10-20T17:00:00 840.2 MMSD 0 1.8 13.4 8.6 None None
MS1101 2011-10-20T17:15:00 840.4 MMSD None 1.6 13 8.6 None None
MS1101 2011-10-20T17:30:00 841.1 MMSD None None 12.7 8.5 None None
MS1101 2011-10-20T17:45:00 841.5 MMSD None None 12.4 8.5 None None
MS1101 2011-10-20T18:00:00 841.9 MMSD 0 None 12.2 8.5 None None
MS1101 2011-10-20T18:15:00 842.5 MMSD None None 11.9 8.5 None None
MS1101 2011-10-20T18:30:00 843 MMSD None 3.4 11.7 8.5 None None
MS1101 2011-10-20T18:45:00 843.5 MMSD None 10.7 11.5 8.5 None None
MS1101 2011-10-20T19:00:00 844.5 MMSD 0 1.5 11.3 8.4 None None
MS1101 2011-10-20T19:15:00 844.6 MMSD None 1.3 11.1 8.4 None None
MS1101 2011-10-20T19:30:00 844.6 MMSD None 1.5 11 8.4 None None
MS1101 2011-10-20T19:45:00 844.6 MMSD None 1.5 10.9 8.4 None None
MS1101 2011-10-20T20:00:00 844.9 MMSD 0 1.7 10.8 8.3 None None
MS1101 2011-10-20T20:15:00 845.3 MMSD None 1.6 10.7 8.3 None None
MS1101 2011-10-20T20:30:00 845.6 MMSD None 1.6 10.6 8.3 None None
MS1101 2011-10-20T20:45:00 845.6 MMSD None 1.6 10.5 8.3 None None
MS1101 2011-10-20T21:00:00 845.7 MMSD 0 1.6 10.5 8.3 None None
mmsd_id stage_major turbidity_low stage_flood conductivity_high dissolved_oxygen_high stage_active stage_moderate dissolved_oxygen_low water_temperature_high conductivity_low turbidity_high
MS1101 14 10 11 5000 5 10 13 2 31.6 250 100
CT07RL 10 5000 5 2 31.6 250 100
MS1102 10 5000 5 2 31.6 250 100
MS1103 10 5000 5 2 31.6 250 100
MS1104 18 10 16 5000 5 14 17 2 31.6 250 100
MS1105 18 10 11 5000 5 8 15 2 31.6 250 100
MS1130 10 10 7.5 5000 5 6.5 8.5 2 31.6 250 100
MS1131 10 5000 5 2 31.6 250 100
MS1135 10 5000 5 2 31.6 250 100
MS1132 10 5000 5 2 31.6 250 100
rain_fall_unit water_temp_unit stage_unit do_unit updated_at conductivity_unit flow_unit turbidity_unit
Inches °C FeetUSGS mg/L 2011-11-19T01:09:00 µmhos/cm cfs FNU
Inches °C FeetUSGS mg/L 2011-12-09T01:02:00 µmhos/cm cfs FNU
Inches °C FeetUSGS mg/L 2011-12-13T01:03:00 µmhos/cm cfs FNU
Inches °C FeetUSGS mg/L 2011-12-17T01:12:00 µmhos/cm cfs FNU
Inches °C FeetUSGS mg/L 2013-06-06T01:11:00 µmhos/cm cfs FNU
June 2013
Permalink Hide details Show details 1370551564.271639_41825c6c-d647-4303-96ea-728ef9c42269 21:47, 6 June 2013
Run succeeded: - ran 1 time, most recently for 0 seconds (2 scraped pages, 1171 records) 21:47, 6 June 2013

Loading...


          
Hide changes Show changes 4 21:46, 6 June 2013 3
Edited by Josh 21:46, 6 June 2013

Loading...

Difference between, revision and previous revision


            
December 2011
Hide changes Show changes 3 15:39, 4 December 2011 2 2 15:39, 4 December 2011 0
Edited by Christopher Manning 2 times 15:39, 4 December 2011

Loading...

Difference between, revision and previous revision


            
Hide first version Show first version 0 12:14, 4 December 2011
Edited by Christopher Manning 12:14, 4 December 2011

Loading...

Difference between, revision and previous revision